Hourly Weather Cedar Falls

Today, 15 June, Tuesday

Time Temperature Precipitation Wind Pressure Humidity
00:00 +20°C° 0 mm 1 mps 739 mmHg 67%
01:00 +20°C° 0 mm 1 mps 739 mmHg 66%
02:00 +19°C° 0 mm 1 mps 739 mmHg 66%
03:00 +19°C° 0 mm 1 mps 739 mmHg 65%
04:00 +19°C° 0 mm 1 mps 739 mmHg 67%
05:00 +20°C° 0 mm 1 mps 739 mmHg 69%
06:00 +19°C° 0 mm 2 mps 739 mmHg 72%
07:00 +21°C° 0 mm 2 mps 740 mmHg 67%
08:00 +23°C° 0 mm 2 mps 740 mmHg 61%
09:00 +25°C° 0 mm 3 mps 740 mmHg 56%
10:00 +26°C° 0 mm 3 mps 740 mmHg 53%
11:00 +27°C° 0 mm 3 mps 740 mmHg 50%
12:00 +28°C° 0 mm 3 mps 740 mmHg 47%
13:00 +28°C° 0 mm 3 mps 740 mmHg 47%
14:00 +28°C° 0 mm 3 mps 740 mmHg 47%
15:00 +29°C° 0 mm 3 mps 739 mmHg 46%
16:00 +28°C° 0 mm 3 mps 739 mmHg 51%
17:00 +27°C° 0 mm 3 mps 739 mmHg 56%
18:00 +26°C° 0 mm 3 mps 739 mmHg 61%
19:00 +24°C° 0 mm 3 mps 739 mmHg 65%
20:00 +21°C° 0 mm 3 mps 740 mmHg 70%
21:00 +19°C° 0 mm 3 mps 740 mmHg 74%
22:00 +19°C° 0 mm 3 mps 740 mmHg 76%
23:00 +18°C° 0 mm 2 mps 740 mmHg 78%

Tomorrow, 16 June, Wednesday

Time Temperature Precipitation Wind Pressure Humidity
00:00 +17°C° 0 mm 2 mps 740 mmHg 80%
01:00 +17°C° 0 mm 2 mps 740 mmHg 83%
02:00 +16°C° 0 mm 2 mps 739 mmHg 86%
03:00 +16°C° 0 mm 2 mps 739 mmHg 89%
04:00 +16°C° 0 mm 2 mps 739 mmHg 88%
05:00 +17°C° 0 mm 2 mps 740 mmHg 87%
06:00 +17°C° 0 mm 2 mps 740 mmHg 87%
07:00 +19°C° 0 mm 3 mps 740 mmHg 79%
08:00 +21°C° 0 mm 3 mps 740 mmHg 72%
09:00 +23°C° 0 mm 4 mps 740 mmHg 64%
10:00 +25°C° 0 mm 4 mps 740 mmHg 60%
11:00 +26°C° 0 mm 4 mps 740 mmHg 57%
12:00 +27°C° 0 mm 4 mps 739 mmHg 53%
13:00 +28°C° 0 mm 4 mps 739 mmHg 53%
14:00 +28°C° 0 mm 4 mps 738 mmHg 53%
15:00 +28°C° 0 mm 4 mps 738 mmHg 52%
16:00 +28°C° 0 mm 4 mps 738 mmHg 57%
17:00 +27°C° 0 mm 4 mps 737 mmHg 61%
18:00 +27°C° 0 mm 3 mps 737 mmHg 65%
19:00 +25°C° 0.1 mm 3 mps 737 mmHg 72%
20:00 +22°C° 0.1 mm 3 mps 737 mmHg 78%
21:00 +21°C° 0.1 mm 3 mps 737 mmHg 84%
22:00 +20°C° 0.2 mm 3 mps 737 mmHg 85%
23:00 +20°C° 0.2 mm 4 mps 737 mmHg 85%

Day after tomorrow, 17 June, Thursday

Time Temperature Precipitation Wind Pressure Humidity
00:00 +20°C° 0.2 mm 4 mps 736 mmHg 86%
01:00 +20°C° 0.2 mm 4 mps 736 mmHg 87%
02:00 +19°C° 0.2 mm 4 mps 736 mmHg 89%
03:00 +19°C° 0.2 mm 4 mps 736 mmHg 91%
04:00 +19°C° 0.2 mm 5 mps 736 mmHg 90%
05:00 +20°C° 0.2 mm 5 mps 735 mmHg 90%
06:00 +20°C° 0.2 mm 5 mps 735 mmHg 89%
07:00 +22°C° 0.7 mm 5 mps 735 mmHg 85%
08:00 +23°C° 0.7 mm 5 mps 735 mmHg 81%
09:00 +26°C° 0.7 mm 5 mps 735 mmHg 77%
10:00 +27°C° 0 mm 5 mps 735 mmHg 73%
11:00 +29°C° 0 mm 6 mps 734 mmHg 68%
12:00 +30°C° 0 mm 6 mps 734 mmHg 64%
13:00 +32°C° 0 mm 6 mps 734 mmHg 62%
14:00 +33°C° 0 mm 6 mps 733 mmHg 60%
15:00 +34°C° 0 mm 6 mps 733 mmHg 58%
16:00 +33°C° 0.1 mm 6 mps 732 mmHg 63%
17:00 +32°C° 0.1 mm 6 mps 731 mmHg 67%
18:00 +30°C° 0.1 mm 6 mps 730 mmHg 72%
19:00 +30°C° 0.4 mm 6 mps 730 mmHg 76%
20:00 +29°C° 0.4 mm 5 mps 730 mmHg 80%
21:00 +28°C° 0.4 mm 5 mps 730 mmHg 85%
22:00 +27°C° 0.9 mm 4 mps 730 mmHg 88%
23:00 +26°C° 0.9 mm 4 mps 730 mmHg 92%

18 June, Friday

Time Temperature Precipitation Wind Pressure Humidity
00:00 +24°C° 0.9 mm 3 mps 730 mmHg 96%
01:00 +24°C° 0.1 mm 3 mps 730 mmHg 96%
02:00 +23°C° 0.1 mm 2 mps 730 mmHg 96%
03:00 +21°C° 0.1 mm 2 mps 731 mmHg 96%
04:00 +23°C° 0 mm 2 mps 731 mmHg 95%
05:00 +22°C° 0 mm 3 mps 731 mmHg 93%
06:00 +22°C° 0 mm 3 mps 731 mmHg 92%
07:00 +25°C° 0 mm 3 mps 731 mmHg 80%
08:00 +27°C° 0 mm 4 mps 732 mmHg 69%
09:00 +29°C° 0 mm 4 mps 732 mmHg 57%
10:00 +30°C° 0 mm 5 mps 732 mmHg 53%
11:00 +32°C° 0 mm 5 mps 732 mmHg 48%
12:00 +33°C° 0 mm 5 mps 732 mmHg 44%
13:00 +33°C° 0 mm 5 mps 732 mmHg 43%
14:00 +33°C° 0 mm 5 mps 732 mmHg 41%
15:00 +33°C° 0 mm 5 mps 732 mmHg 40%
16:00 +30°C° 0 mm 4 mps 732 mmHg 44%
17:00 +29°C° 0 mm 3 mps 732 mmHg 49%
18:00 +28°C° 0 mm 3 mps 732 mmHg 54%
19:00 +26°C° 0 mm 3 mps 732 mmHg 57%
20:00 +24°C° 0 mm 3 mps 733 mmHg 60%
21:00 +21°C° 0 mm 3 mps 733 mmHg 63%
22:00 +20°C° 0 mm 3 mps 733 mmHg 67%
23:00 +19°C° 0 mm 3 mps 733 mmHg 71%

19 June, Saturday

Time Temperature Precipitation Wind Pressure Humidity
00:00 +17°C° 0 mm 3 mps 734 mmHg 75%
01:00 +17°C° 0 mm 3 mps 734 mmHg 75%
02:00 +16°C° 0 mm 3 mps 734 mmHg 75%
03:00 +15°C° 0 mm 2 mps 734 mmHg 76%
04:00 +15°C° 0 mm 2 mps 734 mmHg 77%
05:00 +15°C° 0 mm 2 mps 734 mmHg 77%
06:00 +14°C° 0 mm 3 mps 735 mmHg 78%
07:00 +17°C° 0 mm 3 mps 735 mmHg 72%
08:00 +18°C° 0 mm 3 mps 735 mmHg 66%
09:00 +20°C° 0 mm 4 mps 735 mmHg 59%
10:00 +21°C° 0 mm 3 mps 735 mmHg 56%
11:00 +22°C° 0 mm 3 mps 735 mmHg 53%
12:00 +24°C° 0 mm 3 mps 735 mmHg 50%
13:00 +25°C° 0 mm 3 mps 735 mmHg 49%
14:00 +25°C° 0 mm 3 mps 734 mmHg 48%
15:00 +26°C° 0 mm 3 mps 734 mmHg 47%
16:00 +25°C° 0 mm 2 mps 734 mmHg 51%
17:00 +25°C° 0 mm 2 mps 734 mmHg 55%
18:00 +25°C° 0 mm 1 mps 734 mmHg 59%
19:00 +23°C° 0 mm 2 mps 734 mmHg 63%
20:00 +20°C° 0 mm 2 mps 733 mmHg 67%
21:00 +18°C° 0 mm 2 mps 733 mmHg 70%
22:00 +18°C° 0 mm 2 mps 733 mmHg 73%
23:00 +17°C° 0 mm 2 mps 733 mmHg 76%

20 June, Sunday

Time Temperature Precipitation Wind Pressure Humidity
00:00 +16°C° 0 mm 2 mps 733 mmHg 78%
01:00 +16°C° 0 mm 2 mps 733 mmHg 80%
02:00 +16°C° 0 mm 2 mps 733 mmHg 82%
03:00 +14°C° 0 mm 3 mps 733 mmHg 84%
04:00 +16°C° 0 mm 3 mps 733 mmHg 84%
05:00 +16°C° 0 mm 3 mps 733 mmHg 84%
06:00 +17°C° 0 mm 3 mps 733 mmHg 84%
07:00 +18°C° 0 mm 3 mps 732 mmHg 78%
08:00 +20°C° 0 mm 4 mps 732 mmHg 73%
09:00 +22°C° 0 mm 5 mps 732 mmHg 67%
10:00 +22°C° 0.2 mm 5 mps 732 mmHg 69%
11:00 +23°C° 0.2 mm 6 mps 731 mmHg 70%
12:00 +23°C° 0.2 mm 6 mps 731 mmHg 72%
13:00 +23°C° 0.1 mm 6 mps 731 mmHg 73%
14:00 +24°C° 0.1 mm 6 mps 730 mmHg 75%
15:00 +24°C° 0.1 mm 6 mps 729 mmHg 76%
16:00 +23°C° 0.1 mm 5 mps 729 mmHg 81%
17:00 +22°C° 0.1 mm 4 mps 728 mmHg 86%
18:00 +21°C° 0.1 mm 4 mps 728 mmHg 91%
19:00 +21°C° 0 mm 4 mps 728 mmHg 90%
20:00 +21°C° 0 mm 5 mps 727 mmHg 90%
21:00 +21°C° 0 mm 5 mps 727 mmHg 90%
22:00 +21°C° 0.2 mm 5 mps 726 mmHg 92%
23:00 +21°C° 0.2 mm 5 mps 726 mmHg 94%
Show more

We Need Your Consent

Meteoprog and our Service Providers may store and access personal data such as cookies, device identifiers or other similar technologies on your device and process such data to personalise content and ads, as well as provide social media features and to analyse the traffic.

  • Store and/or access information on your device

    Cookies, device identifiers or other information can be stored or accessed on your device for the purposes indicated above.

  • Personalised ads and content, ad and content measurement, audience insights, and products development

    Ads and content can be personalised based on a profile. More data can be added to better personalise ads and content. Ad and content performance can be measured. Insights about the audience who saw the ads and content can be derived. Such data can be used to develop or improve user’s experience, systems and software.

By clicking ‘I Agree’ you will allow the use of indicated cookies, device identifiers, web beacons or other similar technologies. Your settings can be changed in the browser on your device.

For certain purposes, legitimate interests may be relied on, rather than consent. You can read more about this in our Privacy and Cookie Policy.